Flag for Ukraine Weather past 2 weeks in Kryvyi Rih, Ukraine

Now
50 °F

Passing clouds.


Feels Like: 48 °F
Forecast: 37 / 56 °F
Wind: 6 mph from North

Location: Krivyy Rih / Dnipropetrovs'k

Current Time: Oct 1, 2014 at 8:59:04 AM

Latest Report: Oct 1, 2014 at 8:30 AM


Visibility: N/A

Pressure: 30.18 "Hg

Humidity: 76%

Dew point: 43 °F

Location of Kryvyi RihLocation

Historic Weather in Kryvyi Rih — Graph

°F

Kryvyi Rih temperature yesterday

Maximum temperature yesterday: 73 °F (at 3:00 PM)
Minimum temperature yesterday: 46 °F (at 8:00 AM)
Average temperature yesterday: 60 °F

Past Weeks' High & Low Weather Summary

 TemperatureHumidityPressure
High73 °F (Sep 30, 3:00 PM)100% (Sep 23, 6:00 AM)30.36 "Hg (Sep 23, 6:00 AM)
Low43 °F (Sep 20, 6:00 AM)20% (Sep 19, 4:00 PM)29.39 "Hg (Sep 24, 1:30 AM)
Average56 °F64%30.03 "Hg
* Reported Sep 16 7:00 AM — Oct 1 7:30 AM, Kryvyi Rih, Weather by CustomWeather, © 2014

Note: Actual official high and low records may vary slightly from our data, if they occured in-between our weather recording intervals... More about our weather records

Advertising

Kryvyi Rih weather history for previous 24 hours

 ConditionsComfort  
Time TempWeatherWind HumidityBarometerVisibility
7:30 AM
Oct 1
50 °FClear.8 mph76%30.15 "Hg10 mi
7:00 AM50 °FClear.6 mph76%30.15 "Hg10 mi
6:30 AM54 °FClear.6 mph77%30.15 "Hg10 mi
6:00 AM54 °FClear.6 mph77%30.15 "Hg10 mi
5:30 AM54 °FClear.8 mph82%30.12 "Hg10 mi
5:00 AM54 °FClear.6 mph82%30.12 "Hg10 mi
4:30 AM54 °FClear.8 mph82%30.12 "Hg10 mi
4:00 AM54 °FClear.8 mph82%30.12 "Hg10 mi
3:30 AM55 °FClear.6 mph77%30.12 "Hg10 mi
3:00 AM55 °FClear.8 mph77%30.12 "Hg10 mi
2:30 AM55 °FClear.6 mph77%30.12 "Hg10 mi
2:00 AM55 °FClear.6 mph77%30.09 "Hg10 mi
1:30 AM55 °FClear.6 mph77%30.09 "Hg10 mi
1:00 AM55 °FClear.3 mph77%30.09 "Hg10 mi
12:00 AM55 °FClear.3 mph72%30.09 "Hg10 mi
11:30 PM
Sep 30
57 °FClear.3 mph67%30.09 "Hg10 mi
11:00 PM57 °FClear.6 mph67%30.09 "Hg10 mi
10:30 PM59 °FClear.3 mph68%30.09 "Hg10 mi
10:00 PM59 °FClear.3 mph68%30.09 "Hg10 mi
9:30 PM59 °FClear.3 mph68%30.09 "Hg10 mi
9:00 PM59 °FClear.3 mph68%30.09 "Hg10 mi
8:30 PM61 °FClear.6 mph63%30.09 "Hg10 mi
8:00 PM61 °FClear.8 mph63%30.09 "Hg10 mi
7:30 PM64 °FClear.6 mph56%30.09 "Hg10 mi
7:00 PM64 °FSunny.10 mph56%30.09 "Hg10 mi
6:30 PM68 °FSunny.10 mph43%30.09 "Hg10 mi
6:00 PM68 °FSunny.10 mph43%30.07 "Hg10 mi
5:30 PM72 °FSunny.13 mph38%30.07 "Hg10 mi
5:00 PM72 °FSunny.13 mph38%30.07 "Hg10 mi
4:30 PM73 °FSunny.13 mph29%30.07 "Hg10 mi
4:00 PM73 °FSunny.13 mph29%30.07 "Hg10 mi
3:30 PM73 °FSunny.13 mph36%30.07 "Hg10 mi
3:00 PM73 °FPassing clouds.13 mph36%30.07 "HgN/A
2:30 PM72 °FSunny.13 mph44%30.09 "Hg10 mi
2:00 PM72 °FSunny.10 mph44%30.09 "Hg10 mi
1:30 PM70 °FSunny.13 mph50%30.09 "Hg10 mi
1:00 PM70 °FSunny.13 mph50%30.09 "Hg10 mi
12:30 PM68 °FSunny.15 mph53%30.12 "Hg10 mi
12:00 PM68 °FPassing clouds.10 mph53%30.12 "HgN/A
11:30 AM64 °FSunny.13 mph56%30.12 "Hg10 mi
11:00 AM64 °FSunny.13 mph56%30.15 "Hg10 mi
10:30 AM61 °FSunny.8 mph59%30.15 "Hg10 mi
10:00 AM61 °FSunny.6 mph59%30.15 "Hg10 mi
9:30 AM54 °FSunny.6 mph77%30.15 "Hg10 mi
9:00 AM54 °FSunny.6 mph77%30.15 "Hg10 mi
8:30 AM46 °FSunny.3 mph93%30.15 "Hg10 mi
8:00 AM46 °FSunny.3 mph93%30.15 "Hg10 mi
Weather by CustomWeather, © 2014

See weather overviewHow to use our weather pages